AFR006 LFPG-EBCI

Flight info

Callsign AFR006
Flight time 0h 33m
Altitude 22000
Route PG082 DCT PG086 DCT NEPAR DCT DIKOL DCT XERAM DCT MOPIL
Aircraft A320/M-SDE3FGHIRWY/LB1

Departure

Time 2026-05-05 14:50
Airport Charles de Gaulle International Airport (LFPG)

Arrival

Time 2026-05-05 15:24
Airport Brussels South Charleroi Airport (EBCI)
Time Latitude Longitude Altitude Speed Heading
2026-05-05 13:52 49.01714 2.54092 355 ft 0 kts 209°
2026-05-05 14:40 49.01730 2.54105 360 ft 4 kts 207°
2026-05-05 14:41 49.01754 2.54123 362 ft 4 kts 205°
2026-05-05 14:41 49.01779 2.54139 362 ft 4 kts 205°
2026-05-05 14:41 49.01798 2.54154 363 ft 2 kts 224°
2026-05-05 14:41 49.01808 2.54182 361 ft 3 kts 243°
2026-05-05 14:42 49.01812 2.54196 363 ft 4 kts 275°
2026-05-05 14:42 49.01812 2.54236 360 ft 4 kts 277°
2026-05-05 14:42 49.01809 2.54264 361 ft 0 kts 278°
2026-05-05 14:44 49.01811 2.54247 360 ft 10 kts 277°
2026-05-05 14:44 49.01811 2.54135 358 ft 8 kts 264°
2026-05-05 14:45 49.01806 2.54050 354 ft 13 kts 266°
2026-05-05 14:45 49.01793 2.53822 358 ft 24 kts 265°
2026-05-05 14:45 49.01782 2.53610 354 ft 17 kts 264°
2026-05-05 14:45 49.01774 2.53464 360 ft 10 kts 264°
2026-05-05 14:46 49.01768 2.53372 356 ft 14 kts 264°
2026-05-05 14:46 49.01759 2.53208 364 ft 14 kts 265°
2026-05-05 14:46 49.01754 2.53096 361 ft 11 kts 265°
2026-05-05 14:46 49.01742 2.52863 359 ft 26 kts 266°
2026-05-05 14:47 49.01728 2.52606 359 ft 23 kts 265°
2026-05-05 14:47 49.01730 2.52384 359 ft 17 kts 303°
2026-05-05 14:47 49.01825 2.52355 354 ft 13 kts 357°
2026-05-05 14:47 49.01884 2.52292 363 ft 12 kts 279°
2026-05-05 14:48 49.01918 2.52119 358 ft 16 kts 345°
2026-05-05 14:48 49.02007 2.52110 354 ft 11 kts 356°
2026-05-05 14:48 49.02082 2.52108 354 ft 13 kts
2026-05-05 14:48 49.02111 2.52190 355 ft 0 kts 85°
2026-05-05 14:49 49.02129 2.52496 356 ft 65 kts 84°
2026-05-05 14:49 49.02181 2.53511 359 ft 124 kts 86°
2026-05-05 14:50 49.02264 2.55064 426 ft 164 kts 84°
2026-05-05 14:50 49.02357 2.56785 1173 ft 161 kts 80°
2026-05-05 14:50 49.02467 2.58482 1962 ft 161 kts 78°
2026-05-05 14:50 49.02635 2.60309 2232 ft 190 kts 77°
2026-05-05 14:51 49.02805 2.62448 2486 ft 218 kts 82°
2026-05-05 14:51 49.02923 2.64896 2920 ft 243 kts 86°
2026-05-05 14:51 49.03024 2.67530 3762 ft 252 kts 85°
2026-05-05 14:51 49.03130 2.70225 4765 ft 257 kts 85°
2026-05-05 14:52 49.03326 2.72946 5740 ft 261 kts 73°
2026-05-05 14:52 49.04305 2.75255 6611 ft 267 kts 38°
2026-05-05 14:52 49.06019 2.76343 7545 ft 273 kts 10°
2026-05-05 14:52 49.07924 2.76409 8568 ft 276 kts 358°
2026-05-05 14:53 49.09851 2.76123 9552 ft 280 kts 355°
2026-05-05 14:53 49.11823 2.75786 10176 ft 295 kts 356°
2026-05-05 14:53 49.13949 2.75508 10430 ft 318 kts 358°
2026-05-05 14:53 49.16239 2.75329 10694 ft 340 kts
2026-05-05 14:54 49.18637 2.75246 11270 ft 349 kts
2026-05-05 14:54 49.21082 2.75225 11932 ft 354 kts
2026-05-05 14:54 49.23567 2.75239 12616 ft 360 kts
2026-05-05 14:54 49.26092 2.75268 13301 ft 366 kts
2026-05-05 14:55 49.28655 2.75298 13962 ft 370 kts
2026-05-05 14:55 49.31247 2.75320 14586 ft 375 kts
2026-05-05 14:55 49.33869 2.75334 15200 ft 379 kts
2026-05-05 14:55 49.36529 2.75345 15799 ft 384 kts
2026-05-05 14:56 49.39220 2.75357 16403 ft 390 kts
2026-05-05 14:56 49.41950 2.75368 17032 ft 394 kts
2026-05-05 14:56 49.44708 2.75378 17606 ft 399 kts
2026-05-05 14:56 49.47499 2.75390 18167 ft 403 kts
2026-05-05 14:57 49.50315 2.75402 18666 ft 407 kts
2026-05-05 14:57 49.53164 2.75416 19165 ft 411 kts
2026-05-05 14:57 49.56032 2.75433 19689 ft 414 kts
2026-05-05 14:57 49.58917 2.75448 20223 ft 416 kts
2026-05-05 14:58 49.61823 2.75460 20710 ft 419 kts
2026-05-05 14:58 49.64747 2.75468 21236 ft 421 kts
2026-05-05 14:58 49.67684 2.75475 21697 ft 424 kts
2026-05-05 14:58 49.70647 2.75483 21821 ft 430 kts
2026-05-05 14:59 49.73690 2.75496 21835 ft 443 kts
2026-05-05 14:59 49.76792 2.75512 21848 ft 448 kts
2026-05-05 14:59 49.79898 2.75882 21840 ft 448 kts 10°
2026-05-05 14:59 49.82912 2.77024 21845 ft 446 kts 20°
2026-05-05 15:00 49.84827 2.78192 21843 ft 445 kts 26°
2026-05-05 15:00 49.87530 2.80506 21850 ft 443 kts 35°
2026-05-05 15:00 49.90111 2.83132 21846 ft 444 kts 35°
2026-05-05 15:00 49.92693 2.85755 21841 ft 444 kts 35°
2026-05-05 15:01 49.95281 2.88383 21844 ft 445 kts 36°
2026-05-05 15:01 49.97871 2.91019 21851 ft 445 kts 35°
2026-05-05 15:01 50.00456 2.93653 21832 ft 445 kts 36°
2026-05-05 15:01 50.03043 2.96297 21844 ft 445 kts 35°
2026-05-05 15:02 50.05628 2.98942 21827 ft 445 kts 35°
2026-05-05 15:02 50.08214 3.01590 21839 ft 445 kts 35°
2026-05-05 15:02 50.10795 3.04237 21831 ft 445 kts 35°
2026-05-05 15:02 50.13385 3.06895 21843 ft 445 kts 35°
2026-05-05 15:03 50.15970 3.09553 21839 ft 445 kts 35°
2026-05-05 15:03 50.18553 3.12213 21845 ft 445 kts 34°
2026-05-05 15:03 50.21138 3.14879 21848 ft 446 kts 34°
2026-05-05 15:03 50.23726 3.17552 21860 ft 445 kts 34°
2026-05-05 15:04 50.26309 3.20222 21849 ft 445 kts 34°
2026-05-05 15:04 50.28884 3.22889 21814 ft 442 kts 34°
2026-05-05 15:04 50.31429 3.25531 21515 ft 438 kts 34°
2026-05-05 15:04 50.33955 3.28160 21125 ft 435 kts 35°
2026-05-05 15:05 50.38962 3.33373 20366 ft 428 kts 34°
2026-05-05 15:05 50.41436 3.35941 19993 ft 425 kts 34°
2026-05-05 15:05 50.43886 3.38489 19626 ft 421 kts 35°
2026-05-05 15:06 50.46323 3.41032 19263 ft 419 kts 34°
2026-05-05 15:06 50.48738 3.43558 18904 ft 416 kts 35°
2026-05-05 15:06 50.51117 3.46118 18540 ft 413 kts 39°
2026-05-05 15:06 50.53189 3.49201 18188 ft 408 kts 51°
2026-05-05 15:07 50.54804 3.52817 17791 ft 403 kts 61°
2026-05-05 15:07 50.55927 3.56823 17399 ft 399 kts 73°
2026-05-05 15:07 50.56722 3.60993 16993 ft 395 kts 75°
2026-05-05 15:07 50.57504 3.65124 16608 ft 393 kts 74°
2026-05-05 15:08 50.58282 3.69226 16221 ft 390 kts 74°
2026-05-05 15:08 50.59052 3.73289 15820 ft 387 kts 74°
2026-05-05 15:08 50.59819 3.77343 15446 ft 385 kts 74°
2026-05-05 15:08 50.60576 3.81361 15073 ft 381 kts 74°
2026-05-05 15:09 50.61324 3.85353 14706 ft 380 kts 74°
2026-05-05 15:09 50.62065 3.89326 14341 ft 376 kts 74°
2026-05-05 15:09 50.62798 3.93271 13984 ft 374 kts 74°
2026-05-05 15:09 50.63525 3.97200 13623 ft 372 kts 75°
2026-05-05 15:10 50.64244 4.01097 13226 ft 369 kts 74°
2026-05-05 15:10 50.64958 4.04967 12827 ft 367 kts 74°
2026-05-05 15:10 50.65664 4.08783 12441 ft 358 kts 74°
2026-05-05 15:10 50.66350 4.12500 12056 ft 350 kts 74°
2026-05-05 15:11 50.67020 4.16142 11672 ft 342 kts 74°
2026-05-05 15:11 50.67672 4.19696 11295 ft 334 kts 74°
2026-05-05 15:11 50.68291 4.23190 10922 ft 327 kts 78°
2026-05-05 15:11 50.68310 4.26718 10555 ft 322 kts 102°
2026-05-05 15:12 50.67400 4.29895 10192 ft 320 kts 126°
2026-05-05 15:12 50.65740 4.32185 9830 ft 319 kts 148°
2026-05-05 15:12 50.63796 4.33847 9438 ft 317 kts 150°
2026-05-05 15:12 50.61860 4.35464 9020 ft 313 kts 150°
2026-05-05 15:13 50.59977 4.37026 8626 ft 299 kts 150°
2026-05-05 15:13 50.58182 4.38513 8243 ft 286 kts 150°
2026-05-05 15:13 50.56423 4.39978 7866 ft 285 kts 150°
2026-05-05 15:13 50.54718 4.41402 7492 ft 278 kts 150°
2026-05-05 15:14 50.53015 4.42823 7123 ft 276 kts 150°
2026-05-05 15:14 50.51313 4.44248 6748 ft 275 kts 150°
2026-05-05 15:14 50.49637 4.45652 6388 ft 273 kts 150°
2026-05-05 15:14 50.48075 4.47297 6062 ft 269 kts 135°
2026-05-05 15:15 50.46893 4.49510 5699 ft 264 kts 120°
2026-05-05 15:15 50.46151 4.52126 5250 ft 262 kts 103°
2026-05-05 15:15 50.45760 4.54915 4833 ft 261 kts 98°
2026-05-05 15:15 50.45385 4.57694 4418 ft 260 kts 99°
2026-05-05 15:16 50.45007 4.60466 3986 ft 259 kts 99°
2026-05-05 15:16 50.44629 4.63216 3577 ft 257 kts 100°
2026-05-05 15:16 50.44254 4.65949 3176 ft 255 kts 99°
2026-05-05 15:16 50.44113 4.68678 2980 ft 250 kts 84°
2026-05-05 15:17 50.44437 4.71343 2989 ft 249 kts 70°
2026-05-05 15:17 50.45120 4.73830 2992 ft 247 kts 64°
2026-05-05 15:17 50.45806 4.76195 2989 ft 228 kts 64°
2026-05-05 15:17 50.46578 4.78236 2989 ft 210 kts 46°
2026-05-05 15:18 50.47774 4.79447 2990 ft 203 kts 18°
2026-05-05 15:18 50.49138 4.79638 2991 ft 196 kts 353°
2026-05-05 15:18 50.50429 4.78910 2989 ft 196 kts 339°
2026-05-05 15:18 50.51646 4.78036 3019 ft 190 kts 338°
2026-05-05 15:19 50.52833 4.77182 3005 ft 186 kts 338°
2026-05-05 15:19 50.53857 4.75947 2990 ft 191 kts 306°
2026-05-05 15:19 50.54161 4.73926 2993 ft 197 kts 264°
2026-05-05 15:19 50.53690 4.71894 2996 ft 200 kts 246°
2026-05-05 15:20 50.53126 4.69950 2987 ft 188 kts 247°
2026-05-05 15:20 50.52591 4.68135 2985 ft 186 kts 246°
2026-05-05 15:20 50.52046 4.66263 2987 ft 189 kts 247°
2026-05-05 15:20 50.51500 4.64370 2950 ft 192 kts 247°
2026-05-05 15:21 50.50957 4.62490 2755 ft 184 kts 248°
2026-05-05 15:21 50.50444 4.60712 2535 ft 174 kts 248°
2026-05-05 15:21 50.49955 4.59017 2306 ft 167 kts 249°
2026-05-05 15:21 50.49485 4.57386 2106 ft 161 kts 249°
2026-05-05 15:22 50.49026 4.55797 1874 ft 158 kts 249°
2026-05-05 15:22 50.48574 4.54228 1658 ft 159 kts 248°
2026-05-05 15:22 50.48122 4.52667 1453 ft 154 kts 248°
2026-05-05 15:22 50.47682 4.51147 1225 ft 151 kts 248°
2026-05-05 15:23 50.47253 4.49657 1002 ft 148 kts 248°
2026-05-05 15:23 50.46823 4.48183 788 ft 148 kts 250°
2026-05-05 15:23 50.46402 4.46717 627 ft 146 kts 250°
2026-05-05 15:23 50.46025 4.45409 626 ft 115 kts 245°
2026-05-05 15:24 50.45800 4.44651 632 ft 34 kts 230°
2026-05-05 15:24 50.45728 4.44638 630 ft 3 kts 160°
2026-05-05 15:24 50.45726 4.44639 630 ft 0 kts 160°
2026-05-05 15:24 50.45724 4.44640 630 ft 1 kts 160°
2026-05-05 15:25 50.45719 4.44644 630 ft 1 kts 156°
2026-05-05 15:25 50.45707 4.44738 634 ft 15 kts 69°
2026-05-05 15:25 50.45753 4.44894 635 ft 17 kts 64°
2026-05-05 15:25 50.45806 4.45078 632 ft 20 kts 65°
2026-05-05 15:26 50.45867 4.45287 630 ft 22 kts 66°
2026-05-05 15:26 50.45934 4.45515 632 ft 22 kts 66°
2026-05-05 15:26 50.45983 4.45687 633 ft 16 kts 63°
2026-05-05 15:26 50.46033 4.45862 626 ft 18 kts 69°
2026-05-05 15:27 50.46059 4.46043 623 ft 18 kts 78°
2026-05-05 15:27 50.46103 4.46210 627 ft 13 kts 63°
2026-05-05 15:27 50.46102 4.46301 626 ft 7 kts 151°
2026-05-05 15:27 50.46063 4.46329 630 ft 1 kts 155°
2026-05-05 15:28 50.46060 4.46332 629 ft 1 kts 155°
2026-05-05 15:28 50.46054 4.46336 627 ft 0 kts 155°